DECAYED

STARLINK-31841, 59732 (Decayed)

Orbit data source: Space-Track

STARLINK-31841, 59732 was a payload satellite owned by SpaceX/Seattle (US) in LEO that was launched on Mon, 13 May 2024 UTC via an FALCON 9 launch vehicle from the Air Force Eastern Test Range (AFETR). Payload-class satellites include a variety of spacecraft equipped with specific instruments for various scientific and technological missions. These include communications satellites like Starlink; space stations such as the ISS; scientific satellites like the Hubble; Earth observation satellites from companies like Planet Labs, Umbra, and HawkEye 360; GPS; miniature CubeSats for education and research; and military/defense satellites.

Not visible in the next 10 days
Identifier
59732, 2024-090C
Orbit
Decayed
Country
Flag of USUS
Related business
Manufacturer
SpaceX/Seattle
Mission
Decayed Commercial Communications
Bus & Motor
STARLINK V2M, Unknown motor
Mass
730 kg wet, ~700 kg dry
Launch date (UTC)
2024-05-13 (2 years ago)
Launch vehicle
FALCON 9
Launch site
Air Force Eastern Test Range (AFETR)
Object type
Payload
Rocket body
Debris
Shape & HBR
Box + 2 Pan, 17.7 m
Radar Cross Section
33.884 m², Large (>1 m²)

Expand to show TLE details & history
Last TLE update: 7 months ago

TLE from 7 months ago
0 STARLINK-31841
1 59732U 24090C   25340.27324993  .11593384  88277-5  33798-2 0  9997
2 59732  42.9719 282.6149 0012995 193.2719 166.7828 16.26093728 89931
Epoch: 2025-12-06T06:33Z
TLE epoch observation values (Epoch: 2025-12-06T06:33:28.793Z)
Latitude
-0.00005°
Longitude
108.94152°
Altitude
211.146 km
Speed
7.777 km/s
True Right ascension
18h 50m 27s
True Declination
0° 00' 00"
Sunlit
Object was in daylight at epoch
Visualization orbit readout
Latitude
Unknown
Longitude
Unknown
Altitude
Unknown
Speed
Unknown
Apparent Right ascension
Unknown
Apparent Declination
Unknown
Sunlit
N/A
Visualization observer readout
Local Sidereal Time
21:31:09
Azimuth
Unknown
Elevation
Unknown
Doppler factor
Unknown
Orbital elements
Apogee altitude
213.646 km
Perigee altitude
196.536 km
Semi-major axis
6,583.228 km
Eccentricity
0.0013
Inclination
42.9719°
RAAN
282.6149°
Arg. of periapsis
193.2719°
True anomaly
166.81679°
Mean anomaly
166.7828°
Eccentric anomaly
166.7998°
Mean motion
4.06336 °/min
Orbital period
88.6 mins
BSTAR
0.0033798
Loading maneuver chart data...
Computing Atmospheric mass density...
Loading historical data...
Loading historical data...
Loading historical data...
Loading historical data...
Loading historical data...
Loading historical data...
Loading historical data...

Documentation

Showing up to 5 results
|